Regional Weather Roundup
Issued by NWS

Home | Current Version | Previous Version | Text Only | Print | Product List | Glossary Off
Versions: 1 2 3 4 5 6 7 8 9 10 11 12 13 14 15 16 17 18 19 20 21 22 23 24 25 26 27 28 29 30 31 32 33 34 35 36 37 38 39 40 41 42 43 44 45 46 47 48 49 50

000
ASUS43 KDTX 262110
RWRMI
MICHIGAN HOURLY REGIONAL WEATHER ROUNDUP
NATIONAL WEATHER SERVICE DETROIT/PONTIAC MI
500 PM EDT SUN APR 26 2015

NOTE: "FAIR" INDICATES FEW OR NO CLOUDS BELOW 12,000 FEET WITH NO
SIGNIFICANT WEATHER AND/OR OBSTRUCTION TO VISIBILITY.

MIZ047>049-052>055-059>063-066>070-074>076-081>083-262200-
SOUTHEAST LOWER MICHIGAN

CITY           SKY/WX    TMP DP  RH WIND       PRES   REMARKS
ADRIAN         MOSUNNY   58  30  34 N15G23    29.89F
ALMA           CLOUDY    58  27  31 N10       29.91F
ANN ARBOR      PTSUNNY   59  30  33 N15       29.89S
BAD AXE        CLOUDY    49  31  50 NE15      29.94R
DETROIT CITY   CLOUDY    55  30  38 N10       29.89F
DETROIT        PTSUNNY   57  29  34 N15       29.89F
FLINT          MOSUNNY   58  30  34 N12       29.92F
GROSSE ILE     CLOUDY    55  28  35 NE9       29.87S
HILLSDALE      MOSUNNY   56  28  33 N10G17    29.89S
HOWELL         MOSUNNY   56  26  31 N10G17    29.90F

CITY           SKY/WX    TMP DP  RH WIND       PRES   REMARKS
JACKSON        PTSUNNY   57  28  33 N14       29.90F
LAMBERTVILLE   CLOUDY    59  30  33 N8        29.88F
LANSING        MOSUNNY   58  29  33 N10       29.91F
LAPEER         NOT AVBL
MASON          PTSUNNY   55  28  34 N8        29.91S
MONROE         CLOUDY    55  28  35 CALM      29.87S
MT. CLEMENS    PTSUNNY   53  33  47 N14       29.87S
PONTIAC        PTSUNNY   53  29  39 N14       29.89S
PORT HOPE        N/A     42  35  76 NE10      29.93F
PORT HURON     MOSUNNY   48  32  53 NE15G23   29.92S
TRI CITIES     MOSUNNY   56  30  37 N10       29.93S
YPSILANTI      CLOUDY    60  29  30 N14       29.89S
$$
MIZ043>046-050>051-056>058-064>065-071>073-077>080-262200-
SOUTHWEST LOWER MICHIGAN

CITY           SKY/WX    TMP DP  RH WIND       PRES   REMARKS
BATTLE CREEK   PTSUNNY   56  28  34 N7        29.92F
BENTON HARBOR  SUNNY     47  32  56 MISG      29.98S
BIG RAPIDS     SUNNY     58  21  24 N14G23    29.92S
COLDWATER      MOSUNNY   56  29  35 N10G16    29.91S
HOLLAND        SUNNY     55  30  38 NW14G23   29.96F
GRAND RAPIDS   PTSUNNY   60  27  28 NW13      29.91F
KALAMAZOO      PTSUNNY   59  28  30 N12       29.92F
MARSHALL       PTSUNNY   55  29  37 N9        29.91S
MUSKEGON       MOSUNNY   57  26  30 NW18G24   29.96S
$$
MIZ016>042-262200-
NORTHERN LOWER MICHIGAN

CITY           SKY/WX    TMP DP  RH WIND       PRES   REMARKS
ALPENA         MOSUNNY   52  31  44 N13G24    29.96S
BEAVER ISLAND  MOSUNNY   50  31  48 N12G23    30.03S
BELLAIRE       MOSUNNY   52  30  42 N9G17     30.00S
CADILLAC       SUNNY     52  28  40 NW14G25   29.96S
CHARLEVOIX     MOSUNNY   47  32  57 NW9       30.04S
FRANKFORT      PTCLDY    52  25  34 N9        30.02F
GAYLORD        CLOUDY    49  28  44 N8        29.96S
GRAYLING       PTSUNNY   52  28  39 NW9       29.96R
HARBOR SPRINGS PTSUNNY   52  31  45 NW10G18   29.99S
HOUGHTON LAKE  CLOUDY    52  27  38 NW12G21   29.94S
MANISTEE       MOSUNNY   48  27  43 NW12G21   30.02F
OSCODA         MOSUNNY   51  35  55 NE10      29.92F
PELLSTON       CLOUDY    51  33  50 N17G23    30.00R
TRAVERSE CITY  MOSUNNY   51  30  44 N12       30.00S
$$
MIZ007>008-015-262200-
EASTERN UPPER MICHIGAN

CITY           SKY/WX    TMP DP  RH WIND       PRES   REMARKS
KINROSS        PTSUNNY   46  30  53 NW18G26   30.00R
MACKINAC ISLAN PTSUNNY   50  33  52 N14G20    29.99S
NEWBERRY       PTSUNNY   44  32  63 NW17G23   30.04S
S. S. MARIE    CLOUDY    43  30  60 NW16G24   30.00S
$$
MIZ004>006-011>014-085-262200-
CENTRAL UPPER MICHIGAN

CITY           SKY/WX    TMP DP  RH WIND       PRES   REMARKS
MANISTIQUE     SUNNY     50  32  50 N20G26    30.04S
ESCANABA       MOSUNNY   54  28  37 N10G21    30.05S
MENOMINEE      SUNNY     48  30  49 E16G22    30.03F
SAWYER-GWINN   SUNNY     45  28  53 N16       30.09
$$
MIZ001>003-009>011-084-262200-
WESTERN UPPER MICHIGAN

CITY           SKY/WX    TMP DP  RH WIND       PRES   REMARKS
IRON MOUNTAIN  SUNNY     57  27  31 N13G22    30.04S
HOUGHTON       SUNNY     49  29  46 NW13      30.13S
COPPER HARBOR    N/A     44  30  57 N16       30.14S
IRONWOOD       SUNNY     45  28  53 N8G16     30.13S
$$

ABBREVIATIONS USED IN REMARKS
   TC - TEMPERATURE IN CELSIUS
  WCI - WIND CHILL INDEX
   HX - HEAT INDEX
  VSB - VISIBILITY



USA.gov is the U.S. government's official web portal to all federal, state and local government web resources and services.